默认 日期 大小 文件数 浏览量 最新下载 xml
black 24.磁力链接相关资源由用户搜索指令自动获取,结果来源于网络,本站不存储任何资料,亦不承担任何责任,请于24小时内删除,搜索到4045个磁力,显示前4000条数据,用时28ms。
    ... Pulse Ensemble - The Light Comes Black.m3u": 198}
创建时间: 2025-01-31 09:25:10 大小:414.66 MB 文件数量:12 热度:4 最近下载:2025-03-13 06:41:01
    {"Torrent Downloaded From XXXClub.to .nfo": 34, "julesjordan.24.08.23.jordan.maxx.takes.control.of.lexington.steeles.big.black.cock.xxx.mp4": 6874920579}
创建时间: 2025-02-01 12:40:16 大小:6.4 GB 文件数量:2 热度:46 最近下载:2025-10-13 00:59:01
    {"Provided by PornRips.to.nfo": 47, "Nubiles.24.05.15.Rubi.Rico.Black.Leather.XXX.1080p.HEVC.x265.PRT.mp4": 314191488}
创建时间: 2025-02-01 17:52:06 大小:299.64 MB 文件数量:2 热度:6 最近下载:2025-09-24 14:06:02
    {"Fotos": {"1.jpg": 3862427, "2.jpg": 4185091, "3.jpg": 3792292, "4.jpg": 4189318, "5.jpg": 2984987, "7.jpg": 2792137}, "folder.jpg": 275198, "Black Sabbath - Black Sabbath.cue": 609, "Black Sabbath - Black Sabbath.flac": 1707332479}
创建时间: 2025-02-02 13:34:44 大小:1.61 GB 文件数量:9 热度:4 最近下载:2025-04-14 01:48:01
    {"cover.jpg": 497241, "01 - Kinetic.flac": 109097057, "03 - Underwave.flac": 64660832, "07 - Particles.flac": 57626405, "06 - Conundrums.flac": 60859108, "04 - Synesthetic.flac": 60570070, "05 - Violet Drift.flac": 34482077, "02 - Monkey System.flac": ...
创建时间: 2025-02-02 18:33:49 大小:428.46 MB 文件数量:8 热度:7 最近下载:2025-10-04 10:48:03
    {"Torrent Downloaded From XXXClub.to .nfo": 34, "karupspc.24.01.06.cherry.black.sweet.teen.cherry.480p.mp4": 145444905}
创建时间: 2025-02-05 19:35:53 大小:138.71 MB 文件数量:2 热度:4 最近下载:2025-05-16 14:30:01
    {"folder.jpg": 2470898, "07 - Symmetry.flac": 12548994, "09 - Breathless.flac": 61368944, "02 - Psycho Hell.flac": 50297305, "01 - Dear Brother.flac": 51551819, "03 - Poison Blade.flac": 56384490, "05 - Before The Fall.flac": 54072755, "06 - In Another ...
创建时间: 2025-02-07 17:14:37 大小:487.96 MB 文件数量:10 热度:10 最近下载:2025-09-21 05:44:01
    {"folder.jpg": 213383, "03 - Oceans.flac": 50596346, "06 - Change.flac": 87749897, "05 - Now is the Time.flac": 114078775, "08 - Song for Little Blues.flac": 37047847, "01 - Everybody Cryin' Mercy.flac": 48334547, "04 - Medulla-Oblongata Freedom.flac": ...
创建时间: 2025-02-08 10:21:32 大小:502.52 MB 文件数量:9 热度:4 最近下载:2025-04-06 09:46:02
    ... .html": 145, "sexmex.24.11.10.sarah.black.big.booty.step-mom ...
创建时间: 2025-02-08 17:38:47 大小:625.44 MB 文件数量:5 热度:21 最近下载:2025-09-17 23:21:14
    {"Provided by PornRips.to.nfo": 47, "EvilAngel.24.09.17.Nicole.Black.XXX.1080p.HEVC.x265.PRT.mp4": 848126751}
创建时间: 2025-02-12 10:59:48 大小:808.84 MB 文件数量:2 热度:14 最近下载:2025-09-28 12:21:02
    {"lewd-laso126mbtthahb.mp4": 339043014, "Torrent Downloaded From XXXClub.to .nfo": 34}
创建时间: 2025-02-13 18:46:33 大小:323.34 MB 文件数量:2 热度:15 最近下载:2025-09-20 06:57:02
    {"Provided by PornRips.to.nfo": 47, "Lady-Sonia.24.03.22.Playing.With.My.Black.Torso.Toys.Huge.BBC.XXX.VERTiCAL.1080p.HEVC.x265.PRT.mp4": 179527458}
创建时间: 2025-02-15 14:24:45 大小:171.21 MB 文件数量:2 热度:8 最近下载:2025-09-18 22:53:03
    {"lewd-laso322pwmbtthb.mp4": 322371253, "Torrent Downloaded From XXXClub.to .nfo": 34}
创建时间: 2025-02-16 19:50:50 大小:307.44 MB 文件数量:2 热度:14 最近下载:2025-09-19 21:58:04
    ... 2000].mp4": 139349948}, "Black Street Hookers 19 (1998 ... Black Street Hookers 24 (1999)": {"screens.jpg": 1319756, "Black Street Hookers 24.mp4": 1535973795, "Black ... Street Hookers 24_cover.jpg": 235993}, "Black ...
创建时间: 2025-02-18 19:39:20 大小:10.23 GB 文件数量:27 热度:4 最近下载:2025-05-27 06:54:01
    {"folder.jpg": 909450, "03 - Hive.flac": 71305439, "06 - Downfall.flac": 71439177, "04 - Midnight Sun.flac": 83583642, "02 - System Seizure.flac": 79343710, "01 - Shattered Remains.flac": 85028467, "05 - Humanity's Shadow.flac": 84936446, "07 - The Turning ...
创建时间: 2025-02-21 19:37:44 大小:524.89 MB 文件数量:8 热度:5 最近下载:2025-04-06 10:52:02
    {"Torrent Downloaded From XXXClub.to .nfo": 34, "zfilmz.24.07.16.morea.black.nikolaz.zpageti.lily.lu.anuskatzz.snake.dave.and.raava.4k.mp4": 4377078871}
创建时间: 2025-02-24 18:22:18 大小:4.08 GB 文件数量:2 热度:10 最近下载:2025-09-18 16:53:06
    ... .nfo": 86, "EvilAngel.24.04.23.Morea.Black.XXX.XviD-iPT Team ... .avi": 675734078, "EvilAngel.24.04.23.Morea.Black.XXX.XviD-iPT Team ...
创建时间: 2025-02-25 14:17:33 大小:647.01 MB 文件数量:12 热度:4 最近下载:2025-05-04 09:35:02
    {"Provided by PornRips.to.nfo": 47, "ClubSweethearts.24.12.19.Cherry.Black.And.Miley.Muray.Lesbian.XXX.1080p.HEVC.x265.PRT.mp4": 553980081}
创建时间: 2025-02-25 18:42:20 大小:528.32 MB 文件数量:2 热度:6 最近下载:2025-04-14 02:31:02
    {"Provided by PornRips.to.nfo": 47, "5KPorn.24.10.23.Black.Angel.XXX.1080p.HEVC.x265.PRT.mp4": 983331979}
创建时间: 2025-02-26 12:34:07 大小:937.78 MB 文件数量:2 热度:6 最近下载:2025-05-09 08:53:02
    {"BellaBlackPink001-lg.jpg": 912933, "BellaBlackPink002-lg.jpg": 899620, "BellaBlackPink003-lg.jpg": 887086, "BellaBlackPink004-lg.jpg": 1023554, "BellaBlackPink005-lg.jpg": 1029914, "BellaBlackPink006-lg.jpg": 862988, "BellaBlackPink007-lg.jpg": 912379, " ...
创建时间: 2025-02-26 15:45:34 大小:77.97 MB 文件数量:91 热度:2 最近下载:2025-03-08 11:40:02